CCA149 ZBTJ-ZYTL

Flight info

Callsign CCA149
Flight time 0h 58m
Altitude 33100
Route MUGLO W34 ANRAT W575 INTIV
Aircraft A319/M-SDE3FGHIRWY/LB1

Departure

Time 2026-04-16 08:49
Airport Tianjin Binhai International Airport (ZBTJ)

Arrival

Time 2026-04-16 09:48
Airport Dalian Zhoushuizi International Airport (ZYTL)
Time Latitude Longitude Altitude Speed Heading
2026-04-16 08:17 39.12602 117.35317 19 ft 0 kts 273°
2026-04-16 08:38 39.12602 117.35331 30 ft 3 kts 275°
2026-04-16 08:38 39.12599 117.35356 18 ft 3 kts 277°
2026-04-16 08:38 39.12597 117.35382 20 ft 3 kts 262°
2026-04-16 08:38 39.12601 117.35400 20 ft 3 kts 204°
2026-04-16 08:39 39.12610 117.35403 22 ft 2 kts 183°
2026-04-16 08:39 39.12630 117.35404 19 ft 3 kts 183°
2026-04-16 08:39 39.12640 117.35405 21 ft 0 kts 183°
2026-04-16 08:41 39.12640 117.35404 21 ft 0 kts 183°
2026-04-16 08:42 39.12627 117.35404 17 ft 3 kts 183°
2026-04-16 08:42 39.12579 117.35400 18 ft 9 kts 183°
2026-04-16 08:42 39.12524 117.35397 19 ft 7 kts 183°
2026-04-16 08:42 39.12453 117.35391 19 ft 18 kts 184°
2026-04-16 08:43 39.12325 117.35379 18 ft 17 kts 188°
2026-04-16 08:43 39.12255 117.35280 20 ft 14 kts 244°
2026-04-16 08:43 39.12208 117.35151 19 ft 17 kts 245°
2026-04-16 08:43 39.12202 117.35017 19 ft 15 kts 314°
2026-04-16 08:44 39.12291 117.34960 19 ft 15 kts 335°
2026-04-16 08:44 39.12396 117.34897 19 ft 17 kts 335°
2026-04-16 08:44 39.12511 117.34827 19 ft 18 kts 334°
2026-04-16 08:44 39.12614 117.34763 19 ft 15 kts 334°
2026-04-16 08:45 39.12717 117.34700 21 ft 19 kts 334°
2026-04-16 08:45 39.12850 117.34618 20 ft 24 kts 333°
2026-04-16 08:45 39.13001 117.34528 22 ft 23 kts 334°
2026-04-16 08:45 39.13144 117.34440 19 ft 22 kts 334°
2026-04-16 08:46 39.13284 117.34353 19 ft 23 kts 334°
2026-04-16 08:46 39.13435 117.34262 19 ft 26 kts 335°
2026-04-16 08:46 39.13601 117.34158 20 ft 27 kts 335°
2026-04-16 08:46 39.13755 117.34064 20 ft 23 kts 332°
2026-04-16 08:47 39.13755 117.33903 22 ft 19 kts 244°
2026-04-16 08:47 39.13659 117.33868 21 ft 7 kts 155°
2026-04-16 08:47 39.13658 117.33868 21 ft 0 kts 155°
2026-04-16 08:48 39.13636 117.33881 20 ft 21 kts 155°
2026-04-16 08:48 39.13247 117.34116 18 ft 99 kts 154°
2026-04-16 08:49 39.12440 117.34617 19 ft 156 kts 155°
2026-04-16 08:49 39.11388 117.35279 390 ft 173 kts 154°
2026-04-16 08:49 39.10307 117.36033 987 ft 181 kts 154°
2026-04-16 08:49 39.09121 117.36810 1455 ft 203 kts 157°
2026-04-16 08:50 39.07766 117.37616 1934 ft 227 kts 158°
2026-04-16 08:50 39.06262 117.38498 2587 ft 245 kts 158°
2026-04-16 08:50 39.04724 117.39412 3577 ft 248 kts 157°
2026-04-16 08:50 39.03158 117.40356 4661 ft 249 kts 157°
2026-04-16 08:51 39.01582 117.41317 5683 ft 252 kts 157°
2026-04-16 08:51 38.99990 117.42292 6620 ft 256 kts 158°
2026-04-16 08:51 38.98446 117.43525 7172 ft 269 kts 140°
2026-04-16 08:51 38.97376 117.45531 7532 ft 280 kts 115°
2026-04-16 08:52 38.97050 117.48029 7927 ft 291 kts 90°
2026-04-16 08:52 38.97334 117.50619 8314 ft 294 kts 84°
2026-04-16 08:52 38.97661 117.53227 8697 ft 297 kts 84°
2026-04-16 08:52 38.97987 117.55857 9091 ft 299 kts 84°
2026-04-16 08:53 38.98306 117.58477 9475 ft 302 kts 84°
2026-04-16 08:53 38.98631 117.61158 9873 ft 306 kts 83°
2026-04-16 08:53 38.98965 117.63910 10243 ft 322 kts 83°
2026-04-16 08:53 38.99318 117.66847 10610 ft 343 kts 83°
2026-04-16 08:54 38.99700 117.69966 10975 ft 362 kts 81°
2026-04-16 08:54 39.00335 117.73141 11355 ft 370 kts 75°
2026-04-16 08:54 39.01050 117.76340 11734 ft 374 kts 74°
2026-04-16 08:54 39.01771 117.79558 12113 ft 376 kts 74°
2026-04-16 08:55 39.02485 117.82753 12493 ft 378 kts 74°
2026-04-16 08:55 39.03210 117.86018 12714 ft 380 kts 74°
2026-04-16 08:55 39.03931 117.89283 12758 ft 380 kts 74°
2026-04-16 08:55 39.04650 117.92556 12751 ft 380 kts 74°
2026-04-16 08:56 39.05367 117.95824 12746 ft 380 kts 74°
2026-04-16 08:56 39.06085 117.99099 12749 ft 380 kts 75°
2026-04-16 08:56 39.06569 118.02431 12750 ft 379 kts 85°
2026-04-16 08:56 39.06570 118.05770 12885 ft 378 kts 96°
2026-04-16 08:57 39.06130 118.09108 13154 ft 380 kts 104°
2026-04-16 08:57 39.05595 118.12447 13422 ft 382 kts 103°
2026-04-16 08:57 39.05062 118.15806 13692 ft 385 kts 103°
2026-04-16 08:57 39.04528 118.19186 13924 ft 386 kts 103°
2026-04-16 08:58 39.03993 118.22578 14167 ft 388 kts 103°
2026-04-16 08:58 39.02851 118.29774 14670 ft 391 kts 103°
2026-04-16 08:58 39.02306 118.33205 14911 ft 392 kts 103°
2026-04-16 08:59 39.01757 118.36647 15155 ft 393 kts 104°
2026-04-16 08:59 39.01202 118.40107 15395 ft 396 kts 104°
2026-04-16 08:59 39.00650 118.43534 15637 ft 398 kts 104°
2026-04-16 08:59 39.00088 118.47027 15886 ft 400 kts 104°
2026-04-16 09:00 38.99521 118.50541 16141 ft 401 kts 104°
2026-04-16 09:00 38.98953 118.54060 16397 ft 403 kts 105°
2026-04-16 09:00 38.98380 118.57596 16640 ft 405 kts 105°
2026-04-16 09:00 38.97803 118.61143 16905 ft 406 kts 105°
2026-04-16 09:01 38.96645 118.68223 17412 ft 409 kts 105°
2026-04-16 09:01 38.96059 118.71803 17676 ft 411 kts 105°
2026-04-16 09:01 38.95470 118.75401 17942 ft 412 kts 105°
2026-04-16 09:02 38.94878 118.79014 18208 ft 414 kts 105°
2026-04-16 09:02 38.94285 118.82643 18445 ft 415 kts 105°
2026-04-16 09:02 38.93690 118.86275 18674 ft 417 kts 105°
2026-04-16 09:02 38.93087 118.89934 18916 ft 418 kts 106°
2026-04-16 09:03 38.92490 118.93546 19148 ft 419 kts 106°
2026-04-16 09:03 38.91880 118.97214 19371 ft 421 kts 106°
2026-04-16 09:03 38.91266 119.00907 19611 ft 424 kts 106°
2026-04-16 09:03 38.90647 119.04614 19855 ft 426 kts 106°
2026-04-16 09:04 38.90024 119.08336 20098 ft 427 kts 106°
2026-04-16 09:04 38.89398 119.12069 20339 ft 429 kts 106°
2026-04-16 09:04 38.88770 119.15820 20590 ft 430 kts 106°
2026-04-16 09:04 38.88149 119.19536 20836 ft 432 kts 106°
2026-04-16 09:05 38.87515 119.23314 21087 ft 434 kts 106°
2026-04-16 09:05 38.86874 119.27104 21332 ft 436 kts 106°
2026-04-16 09:05 38.86228 119.30914 21594 ft 438 kts 106°
2026-04-16 09:05 38.85579 119.34733 21844 ft 440 kts 106°
2026-04-16 09:06 38.84924 119.38577 22105 ft 442 kts 106°
2026-04-16 09:06 38.84266 119.42434 22366 ft 443 kts 106°
2026-04-16 09:06 38.83614 119.46260 22542 ft 446 kts 106°
2026-04-16 09:06 38.82939 119.50198 22617 ft 458 kts 107°
2026-04-16 09:07 38.82250 119.54209 22609 ft 462 kts 106°
2026-04-16 09:07 38.81559 119.58248 22608 ft 464 kts 106°
2026-04-16 09:07 38.80868 119.62293 22608 ft 465 kts 106°
2026-04-16 09:07 38.80175 119.66337 22608 ft 465 kts 106°
2026-04-16 09:08 38.79486 119.70342 22608 ft 465 kts 106°
2026-04-16 09:08 38.78785 119.74387 22620 ft 465 kts 107°
2026-04-16 09:08 38.77863 119.78326 22610 ft 459 kts 116°
2026-04-16 09:08 38.76496 119.81996 22528 ft 452 kts 124°
2026-04-16 09:09 38.74768 119.85303 22251 ft 443 kts 134°
2026-04-16 09:09 38.72669 119.88115 21992 ft 434 kts 144°
2026-04-16 09:09 38.70416 119.90671 21734 ft 431 kts 144°
2026-04-16 09:09 38.68182 119.93151 21482 ft 430 kts 145°
2026-04-16 09:10 38.65960 119.95713 21230 ft 431 kts 140°
2026-04-16 09:10 38.64003 119.98636 20979 ft 434 kts 133°
2026-04-16 09:10 38.62134 120.01655 20730 ft 432 kts 133°
2026-04-16 09:10 38.60280 120.04671 20486 ft 430 kts 133°
2026-04-16 09:11 38.58436 120.07677 20241 ft 429 kts 133°
2026-04-16 09:11 38.56602 120.10667 19998 ft 427 kts 133°
2026-04-16 09:11 38.54877 120.13698 19744 ft 429 kts 126°
2026-04-16 09:11 38.53503 120.17100 19517 ft 433 kts 116°
2026-04-16 09:12 38.52576 120.20769 19273 ft 436 kts 106°
2026-04-16 09:12 38.51955 120.24552 19039 ft 435 kts 104°
2026-04-16 09:12 38.51343 120.28327 18805 ft 433 kts 104°
2026-04-16 09:12 38.50733 120.32083 18574 ft 431 kts 104°
2026-04-16 09:13 38.50131 120.35778 18347 ft 429 kts 104°
2026-04-16 09:13 38.49523 120.39499 18092 ft 427 kts 104°
2026-04-16 09:13 38.48912 120.43214 17811 ft 428 kts 105°
2026-04-16 09:13 38.48299 120.46924 17549 ft 426 kts 105°
2026-04-16 09:14 38.47691 120.50608 17288 ft 423 kts 105°
2026-04-16 09:14 38.47089 120.54274 17033 ft 421 kts 105°
2026-04-16 09:14 38.46500 120.57919 16776 ft 418 kts 105°
2026-04-16 09:14 38.45919 120.61536 16522 ft 415 kts 105°
2026-04-16 09:15 38.45348 120.65085 16276 ft 412 kts 105°
2026-04-16 09:15 38.44770 120.68659 16026 ft 410 kts 105°
2026-04-16 09:15 38.44192 120.72205 15781 ft 407 kts 106°
2026-04-16 09:15 38.43618 120.75724 15531 ft 404 kts 106°
2026-04-16 09:16 38.43044 120.79225 15288 ft 401 kts 106°
2026-04-16 09:16 38.42472 120.82699 15046 ft 399 kts 106°
2026-04-16 09:16 38.41904 120.86143 14806 ft 396 kts 107°
2026-04-16 09:16 38.41345 120.89529 14571 ft 393 kts 107°
2026-04-16 09:17 38.40786 120.92927 14334 ft 391 kts 107°
2026-04-16 09:17 38.40414 120.96363 14075 ft 392 kts 98°
2026-04-16 09:17 38.40491 120.99838 13770 ft 393 kts 84°
2026-04-16 09:17 38.40988 121.03260 13522 ft 392 kts 77°
2026-04-16 09:18 38.41576 121.06653 13271 ft 391 kts 78°
2026-04-16 09:18 38.42152 121.10028 13020 ft 389 kts 78°
2026-04-16 09:18 38.42721 121.13393 12770 ft 387 kts 78°
2026-04-16 09:18 38.43277 121.16700 12485 ft 384 kts 78°
2026-04-16 09:19 38.43831 121.19997 11956 ft 377 kts 78°
2026-04-16 09:19 38.44362 121.23251 11383 ft 372 kts 81°
2026-04-16 09:19 38.44539 121.26519 10862 ft 366 kts 91°
2026-04-16 09:19 38.44529 121.29690 10723 ft 349 kts 90°
2026-04-16 09:20 38.44530 121.32719 10595 ft 335 kts 90°
2026-04-16 09:20 38.44537 121.35631 10468 ft 321 kts 90°
2026-04-16 09:20 38.44544 121.38425 10329 ft 310 kts 90°
2026-04-16 09:20 38.44551 121.41111 10064 ft 304 kts 90°
2026-04-16 09:21 38.44556 121.43791 9886 ft 301 kts 90°
2026-04-16 09:21 38.44556 121.46452 9754 ft 300 kts 90°
2026-04-16 09:21 38.44551 121.49120 9415 ft 298 kts 90°
2026-04-16 09:21 38.44548 121.51707 9289 ft 286 kts 90°
2026-04-16 09:22 38.44660 121.54207 9061 ft 280 kts 80°
2026-04-16 09:22 38.45086 121.56598 8872 ft 273 kts 77°
2026-04-16 09:22 38.45516 121.58953 8873 ft 272 kts 77°
2026-04-16 09:22 38.45941 121.61306 8875 ft 272 kts 77°
2026-04-16 09:23 38.46359 121.63634 8876 ft 272 kts 77°
2026-04-16 09:23 38.46792 121.65993 8875 ft 273 kts 75°
2026-04-16 09:23 38.47485 121.68240 8876 ft 273 kts 65°
2026-04-16 09:23 38.48290 121.70434 8876 ft 273 kts 65°
2026-04-16 09:24 38.49091 121.72629 8876 ft 273 kts 65°
2026-04-16 09:24 38.49889 121.74824 8876 ft 273 kts 65°
2026-04-16 09:24 38.50712 121.76969 8875 ft 273 kts 59°
2026-04-16 09:24 38.51810 121.78940 8876 ft 273 kts 53°
2026-04-16 09:25 38.52952 121.80878 8876 ft 273 kts 53°
2026-04-16 09:25 38.54090 121.82818 8876 ft 273 kts 53°
2026-04-16 09:25 38.55227 121.84759 8876 ft 273 kts 53°
2026-04-16 09:25 38.56446 121.86615 8875 ft 273 kts 43°
2026-04-16 09:26 38.57856 121.88198 8876 ft 273 kts 41°
2026-04-16 09:26 38.59287 121.89793 8876 ft 273 kts 41°
2026-04-16 09:26 38.60713 121.91394 8876 ft 273 kts 41°
2026-04-16 09:26 38.62138 121.92996 8876 ft 273 kts 41°
2026-04-16 09:27 38.63680 121.94401 8876 ft 273 kts 29°
2026-04-16 09:27 38.65338 121.95584 8876 ft 273 kts 29°
2026-04-16 09:27 38.66977 121.96747 8875 ft 273 kts 26°
2026-04-16 09:27 38.68794 121.97345 8876 ft 272 kts 359°
2026-04-16 09:28 38.70612 121.96799 8861 ft 271 kts 332°
2026-04-16 09:28 38.72019 121.95248 8719 ft 268 kts 303°
2026-04-16 09:28 38.72841 121.93118 8598 ft 268 kts 292°
2026-04-16 09:28 38.73575 121.90929 8478 ft 267 kts 292°
2026-04-16 09:29 38.74309 121.88745 8359 ft 267 kts 292°
2026-04-16 09:29 38.75045 121.86561 8241 ft 266 kts 292°
2026-04-16 09:29 38.75771 121.84415 8124 ft 266 kts 292°
2026-04-16 09:29 38.76506 121.82248 8006 ft 265 kts 292°
2026-04-16 09:30 38.77240 121.80080 7889 ft 265 kts 292°
2026-04-16 09:30 38.77971 121.77914 7771 ft 264 kts 292°
2026-04-16 09:30 38.78700 121.75756 7653 ft 264 kts 292°
2026-04-16 09:30 38.79427 121.73601 7537 ft 263 kts 292°
2026-04-16 09:31 38.80151 121.71450 7420 ft 263 kts 292°
2026-04-16 09:31 38.80873 121.69303 7303 ft 262 kts 292°
2026-04-16 09:31 38.81582 121.67188 7188 ft 261 kts 292°
2026-04-16 09:31 38.82299 121.65045 7073 ft 261 kts 292°
2026-04-16 09:32 38.83014 121.62912 6957 ft 260 kts 292°
2026-04-16 09:32 38.83729 121.60777 6841 ft 260 kts 292°
2026-04-16 09:32 38.84443 121.58650 6726 ft 259 kts 292°
2026-04-16 09:32 38.85153 121.56525 6611 ft 259 kts 292°
2026-04-16 09:33 38.85854 121.54430 6498 ft 258 kts 292°
2026-04-16 09:33 38.86561 121.52317 6381 ft 255 kts 292°
2026-04-16 09:33 38.87245 121.50277 6268 ft 243 kts 292°
2026-04-16 09:33 38.87788 121.48288 6165 ft 231 kts 280°
2026-04-16 09:34 38.87963 121.46259 6068 ft 228 kts 275°
2026-04-16 09:34 38.88110 121.44248 5971 ft 223 kts 275°
2026-04-16 09:34 38.88256 121.42313 5874 ft 213 kts 275°
2026-04-16 09:34 38.88394 121.40482 5785 ft 207 kts 275°
2026-04-16 09:35 38.88530 121.38657 5698 ft 205 kts 275°
2026-04-16 09:35 38.88667 121.36837 5610 ft 205 kts 275°
2026-04-16 09:35 38.88802 121.35021 5522 ft 204 kts 275°
2026-04-16 09:35 38.88936 121.33208 5433 ft 204 kts 275°
2026-04-16 09:36 38.89068 121.31398 5345 ft 204 kts 275°
2026-04-16 09:36 38.89201 121.29597 5257 ft 203 kts 275°
2026-04-16 09:36 38.89336 121.27789 5169 ft 203 kts 275°
2026-04-16 09:36 38.89470 121.26010 5082 ft 203 kts 275°
2026-04-16 09:37 38.89606 121.24214 4993 ft 201 kts 275°
2026-04-16 09:37 38.89736 121.22484 4929 ft 188 kts 275°
2026-04-16 09:37 38.89857 121.20870 4818 ft 175 kts 275°
2026-04-16 09:37 38.89968 121.19382 4737 ft 161 kts 275°
2026-04-16 09:38 38.90072 121.17987 4639 ft 154 kts 275°
2026-04-16 09:38 38.90174 121.16633 4556 ft 153 kts 275°
2026-04-16 09:38 38.90504 121.15333 4477 ft 154 kts 299°
2026-04-16 09:38 38.91207 121.14328 4404 ft 155 kts 323°
2026-04-16 09:39 38.92184 121.13759 4325 ft 156 kts 347°
2026-04-16 09:39 38.93263 121.13730 4253 ft 156 kts
2026-04-16 09:39 38.94343 121.13863 4171 ft 156 kts
2026-04-16 09:39 38.95419 121.13992 4090 ft 155 kts
2026-04-16 09:40 38.96450 121.14384 4008 ft 156 kts 28°
2026-04-16 09:40 38.97276 121.15244 3931 ft 156 kts 51°
2026-04-16 09:40 38.97793 121.16455 3860 ft 155 kts 73°
2026-04-16 09:40 38.97914 121.17819 3792 ft 154 kts 94°
2026-04-16 09:41 38.97861 121.19196 3723 ft 154 kts 94°
2026-04-16 09:41 38.97814 121.20571 3650 ft 154 kts 93°
2026-04-16 09:41 38.97768 121.21944 3579 ft 154 kts 93°
2026-04-16 09:41 38.97722 121.23317 3508 ft 154 kts 93°
2026-04-16 09:42 38.97676 121.24684 3437 ft 153 kts 93°
2026-04-16 09:42 38.97631 121.26036 3367 ft 153 kts 93°
2026-04-16 09:42 38.97597 121.27405 3301 ft 153 kts 92°
2026-04-16 09:42 38.97570 121.28772 3235 ft 153 kts 92°
2026-04-16 09:43 38.97544 121.30136 3169 ft 153 kts 92°
2026-04-16 09:43 38.97517 121.31497 3103 ft 152 kts 92°
2026-04-16 09:43 38.97489 121.32842 3038 ft 152 kts 92°
2026-04-16 09:43 38.97460 121.34201 2972 ft 152 kts 92°
2026-04-16 09:44 38.97432 121.35559 2906 ft 152 kts 92°
2026-04-16 09:44 38.97383 121.36881 2857 ft 144 kts 94°
2026-04-16 09:44 38.97328 121.38153 2861 ft 142 kts 94°
2026-04-16 09:44 38.97288 121.39420 2723 ft 141 kts 92°
2026-04-16 09:45 38.97265 121.40678 2468 ft 140 kts 94°
2026-04-16 09:45 38.97211 121.41906 2154 ft 139 kts 94°
2026-04-16 09:45 38.97152 121.43142 1821 ft 138 kts 95°
2026-04-16 09:45 38.97039 121.44360 1515 ft 136 kts 104°
2026-04-16 09:46 38.96911 121.45567 1280 ft 136 kts 96°
2026-04-16 09:46 38.96839 121.46781 1064 ft 136 kts 94°
2026-04-16 09:46 38.96794 121.47996 857 ft 136 kts 93°
2026-04-16 09:46 38.96763 121.49205 657 ft 135 kts 92°
2026-04-16 09:47 38.96748 121.50392 477 ft 133 kts 91°
2026-04-16 09:47 38.96724 121.51557 254 ft 129 kts 95°
2026-04-16 09:47 38.96633 121.52685 117 ft 122 kts 96°
2026-04-16 09:47 38.96583 121.53596 114 ft 78 kts 95°
2026-04-16 09:48 38.96544 121.54071 116 ft 29 kts 102°
2026-04-16 09:48 38.96468 121.54300 114 ft 28 kts 126°
2026-04-16 09:48 38.96382 121.54406 113 ft 13 kts 174°
2026-04-16 09:48 38.96346 121.54325 116 ft 12 kts 275°
2026-04-16 09:49 38.96355 121.54212 114 ft 13 kts 275°
2026-04-16 09:49 38.96363 121.54093 116 ft 14 kts 275°
2026-04-16 09:49 38.96345 121.53990 112 ft 12 kts 195°
2026-04-16 09:49 38.96257 121.53983 116 ft 13 kts 182°
2026-04-16 09:50 38.96230 121.53981 114 ft 0 kts 182°